Location: Avon School (historical)
(37.7514°N, 90.2201°W)
Time: 01:02:01
(UTC+00:00)

Explorer 7 - Pass Details

Date: 16 December 2025
Orbit: 433 x 550 km, 50.2° (Epoch: 13 January)

Event Time Altitude Azimuth Distance (km) Brightness Sun altitude
Rises 23:47:14 0° 289° (WNW) 2,468 11.0 -12.3°
Reaches altitude 10° 23:50:23 10° 319° (NW) 1,573 9.4 -12.8°
Maximum altitude 23:52:05 13° 347° (NNW) 1,395 8.8 -13.2°
Enters shadow 23:53:43 10° 16° (NNE) 1,547 8.8 -13.5°
